Regional Weather Roundup
Issued by NWS

Home | Current Version | Previous Version | Graphics & Text | Print | Product List | Glossary On
Versions: 1 2 3 4 5 6 7 8 9 10 11 12 13 14 15 16 17 18 19 20 21 22 23 24 25 26 27 28 29 30 31 32 33 34 35 36 37 38 39 40 41 42 43 44 45 46 47 48 49 50
648
ASUS43 KBIS 031502
RWRND

NORTH DAKOTA REGIONAL WEATHER ROUNDUP
NATIONAL WEATHER SERVICE BISMARCK ND
1000 AM CDT TUE MAY 03 2016

NOTE: "FAIR" INDICATES FEW OR NO CLOUDS BELOW 12,000 FEET WITH NO
SIGNIFICANT WEATHER AND/OR OBSTRUCTIONS TO VISIBILITY.


NDZ001>003-009>011-017-031600-
NORTHWEST NORTH DAKOTA

CITY           SKY/WX    TMP DP  RH WIND       PRES   REMARKS
WILLISTON      SUNNY     58  39  49 SW3       30.06S
MINOT          SUNNY     66  34  30 NW16      30.00R
$$

NDZ018>021-031>035-040>046-031600-
SOUTHWEST NORTH DAKOTA

CITY           SKY/WX    TMP DP  RH WIND       PRES   REMARKS
BISMARCK       SUNNY     60  41  49 W7        30.00F
DICKINSON      SUNNY     61  38  42 NW10      30.05R
GARRISON         N/A     68  35  29 N22       29.99S
HETTINGER ARPT SUNNY     62  37  39 NW9       30.08R
$$

NDZ004>008-012>016-024-026-027-054-031600-
NORTHEAST NORTH DAKOTA

CITY           SKY/WX    TMP DP  RH WIND       PRES   REMARKS
GRAND FORKS    MOSUNNY   63  37  38 N23       29.85S
DEVILS LAKE    MOSUNNY   60  33  36 N21       29.94R
$$

NDZ022-023-025-028>030-036>039-047>053-031600-
SOUTHEAST NORTH DAKOTA

CITY           SKY/WX    TMP DP  RH WIND       PRES   REMARKS
FARGO          MOSUNNY   63  41  44 W14       29.87F
JAMESTOWN      MOSUNNY   61  42  49 NW14      29.91F
$$





USA.gov is the U.S. government's official web portal to all federal, state and local government web resources and services.